Terminal Aerodrome Forecast
Issued by NWS Louisville, KY

Home | Current Version | Previous Version | Text Only | Print | Product List | Glossary On
Versions: 1 2 3 4 5 6 7 8 9 10 11 12 13 14 15 16 17 18 19
825
FTUS43 KLMK 191005 AAA
TAFBWG
TAF AMD
KBWG 191005Z 1910/2006 20003KT 4SM BR VCSH SCT003 OVC080
     FM191300 21005KT P6SM VCSH BKN100
     FM191900 24006KT P6SM BKN100 PROB30 1919/1922 TS BKN050CB=

USA.gov is the U.S. government's official web portal to all federal, state and local government web resources and services.